Regional Weather Roundup
Issued by NWS State College, PA

Home | Current Version | Previous Version | Text Only | Print | Product List | Glossary On
Versions: 1 2 3 4 5 6 7 8 9 10 11 12 13 14 15 16 17 18 19 20 21 22 23 24 25 26 27 28 29 30 31 32 33 34 35 36 37 38 39 40 41 42 43 44 45 46 47 48 49 50
000
ASUS41 KCTP 280210
RWRCTP

REGIONAL WEATHER ROUNDUP
NATIONAL WEATHER SERVICE STATE COLLEGE PA
900 PM EST SAT DEC 27 2014

Note: "fair" indicates few or no clouds below 12,000 feet with no
significant weather and/or obstructions to visibility.

* = STATION THAT DOES NOT REPORT PRECIPITATION /E.G. RAIN...SNOW...ETC/
    THUNDER OR FOG.

PAZ002>004-007>009-013>016-020>023-029>032-280300-
WESTERN PENNSYLVANIA

CITY           SKY/WX    TMP DP  RH WIND       PRES   REMARKS
ERIE           CLOUDY    53  36  52 SW13G23   29.97F
MEADVILLE      CLOUDY    49  35  58 SW12G21   29.99F
FRANKLIN*      CLOUDY    50  32  50 SW9G18    30.03R
NEW CASTLE       N/A     53  31  43 SW7       30.02F
BEAVER COUNTY  NOT AVBL
BUTLER*        CLOUDY    52  23  32 S5        30.05F
PITTSBURGH INT CLOUDY    52  24  33 S5        30.03F
PITTSBURGH     CLOUDY    52  20  28 S7        30.03F
INDIANA*       CLOUDY    52  32  46 SW7       30.08F
LATROBE        MOCLDY    48  32  53 S3        30.07F
WASHINGTON CO* NOT AVBL
$$

PAZ004>006-010>012-017>019-024>028-033>037-041-042-045-046-049>053-280300-
CENTRAL PENNSYLVANIA

CITY           SKY/WX    TMP DP  RH WIND       PRES   REMARKS
BRADFORD       CLOUDY    48  32  53 VRB7      29.99F
DUBOIS         CLOUDY    51  25  36 SW14      30.02F
CLEARFIELD     CLOUDY    44  37  76 CALM      30.04F
JOHNSTOWN      CLOUDY    51  25  36 SW9       30.05F
ALTOONA        MOCLDY    47  30  51 SW6       30.07F
STATE COLLEGE  CLOUDY    48  32  53 SW6       30.05F
WILLIAMSPORT   MOCLDY    41  33  73 CALM      30.06F
SELINSGROVE    PTCLDY    45  33  63 CALM      30.08F
FT INDIANTOWN  CLEAR     39  34  81 CALM      30.12F
CAPITAL CITY   PTCLDY    41  33  73 CALM      30.12F
HARRISBURG     MOCLDY    48  32  53 S6        30.11F
YORK           CLEAR     40  31  70 SE3       30.13S
$$

PAZ038>040-043-044-047-048-054-055-060>062-067>071-280300-
EASTERN PENNSYLVANIA

CITY           SKY/WX    TMP DP  RH WIND       PRES   REMARKS
SCRANTON       CLOUDY    49  33  54 S6        30.07F
MOUNT POCONO   MOCLDY    44  32  62 SW9       30.09R
ALLENTOWN      PTCLDY    40  33  76 NW3       30.13F
QUAKERTOWN*    CLEAR     39  32  75 W3        30.14F
READING        CLEAR     43  32  65 S5        30.12F
LANCASTER      CLEAR     43  32  65 CALM      30.13F
COATESVILLE    CLEAR     45  32  61 CALM      30.14F
POTTSTOWN      CLEAR     42  30  62 CALM      30.14F
BLUE BELL      CLEAR     43  32  65 CALM      30.13F
DOYLESTOWN     CLEAR     44  31  60 S3        30.12F
WILLOW GROVE   NOT AVBL
NORTH PHILA    PTCLDY    47  31  53 SW5       30.16F
PHILADELPHIA   MOCLDY    45  34  65 SW5       30.16F
$$



USA.gov is the U.S. government's official web portal to all federal, state and local government web resources and services.